This is the latest recevied weather packets stored in our database for station/object N0NB. If no packets are shown the sender has not sent any weather packets the latest 10 day(s).
| Time | Temp. | Humidity | Pressure | Rain* | Wind** | Luminosity | Snow |
|---|---|---|---|---|---|---|---|
| 1787895016 | 18.89° C | 95% | 1018.2 hPa | 0 mm | - | 0 W/m² | - |
| 1787894416 | 18.33° C | 95% | 1018 hPa | 0 mm | - | 0 W/m² | - |
| 1787893816 | 18.33° C | 95% | 1018 hPa | 0 mm | - | 0 W/m² | - |
| 1787893216 | 18.33° C | 95% | 1018 hPa | 0 mm | - | 0 W/m² | - |
| 1787892617 | 17.78° C | 95% | 1017.8 hPa | 0 mm | - | 0 W/m² | - |
| 1787892017 | 17.78° C | 94% | 1017.9 hPa | 0 mm | - | 0 W/m² | - |
| 1787891417 | 18.33° C | 94% | 1017.9 hPa | 0 mm | - | 0 W/m² | - |
| 1787890817 | 18.33° C | 94% | 1017.9 hPa | 0 mm | - | 0 W/m² | - |
| 1787890217 | 18.33° C | 94% | 1017.8 hPa | 0 mm | - | 0 W/m² | - |
| 1787889617 | 18.33° C | 94% | 1018 hPa | 0 mm | - | 0 W/m² | - |
| 1787889017 | 18.89° C | 94% | 1018 hPa | 0 mm | - | 0 W/m² | - |
| 1787888417 | 18.89° C | 93% | 1018 hPa | 0 mm | - | 0 W/m² | - |
| 1787887817 | 18.89° C | 93% | 1018 hPa | 0 mm | - | 0 W/m² | - |
| 1787887217 | 18.89° C | 93% | 1017.9 hPa | 0 mm | - | 0 W/m² | - |
| 1787886617 | 19.44° C | 92% | 1017.7 hPa | 0 mm | - | 0 W/m² | - |
| 1787886017 | 19.44° C | 93% | 1017.6 hPa | 0 mm | - | 0 W/m² | - |
| 1787885417 | 19.44° C | 92% | 1017.6 hPa | 0 mm | - | 0 W/m² | - |
| 1787884817 | 19.44° C | 92% | 1017.5 hPa | 0 mm | - | 0 W/m² | - |
| 1787884217 | 20° C | 91% | 1017.6 hPa | 0 mm | - | 0 W/m² | - |
| 1787883617 | 20° C | 90% | 1017.4 hPa | 0 mm | - | 0 W/m² | - |
| 1787883017 | 20° C | 89% | 1017.3 hPa | 0 mm | - | 0 W/m² | - |
| 1787882417 | 20.56° C | 89% | 1017.3 hPa | 0 mm | - | 0 W/m² | - |
| 1787881817 | 20.56° C | 88% | 1017.1 hPa | 0 mm | - | 0 W/m² | - |
| 1787881217 | 21.11° C | 87% | 1016.8 hPa | 0 mm | - | 0 W/m² | - |
| 1787880617 | 21.67° C | 86% | 1016.7 hPa | 0 mm | - | 0 W/m² | - |
* Rain latest hour (hover to see other rain measurements)
** Current wind speed in m/s (hover to see current wind gust speed)